Home   Weather   Liestal   Past weeks

Flag for Switzerland Past Weather in Liestal, Basel-Land, Switzerland — Yesterday and Last 2 Weeks

Now
19 °F

Ice fog.


Feels Like: 19 °F
Forecast: 13 / 31 °F
Wind: 2 mph from North

Location: Bale-Mulhouse

Current Time: Jan 22, 2017 at 11:23:06 pm

Latest Report: Jan 22, 2017 at 10:30 pm


Visibility: 0 mi

Pressure: 30.24 "Hg

Humidity: 93%

Dew Point: 18 °F

Location of LiestalLocation

Past Weather in Liestal — Graph

°F

Liestal Temperature Yesterday

Maximum temperature yesterday: 32 °F (at 3:00 pm)
Minimum temperature yesterday: 19 °F (at 12:00 am)
Average temperature yesterday: 24 °F

High & Low Weather Summary for the Past Weeks

 TemperatureHumidityPressure
High50 °F (Jan 12, 11:00 pm)100% (Jan 9, 10:00 am)30.48 "Hg (Jan 9, 10:00 am)
Low12 °F (Jan 22, 5:30 am)51% (Jan 18, 1:00 pm)29.45 "Hg (Jan 12, 11:30 pm)
Average29 °F82%30.20 "Hg
* Reported Jan 7 10:00 pm — Jan 22 10:00 pm, Liestal, Weather by CustomWeather, © 2017

Note: Actual official high and low records may vary slightly from our data, if they occured in-between our weather recording intervals... More about our weather records

Advertising

Liestal Weather History for the Previous 24 Hours

Scroll right to see more
 ConditionsComfort  
Time TempWeatherWind HumidityBarometerVisibility
10:00 pm
Sun, Jan 22
19 °FIce fog.1 mph100%30.24 "Hg0 mi
9:30 pm21 °FIce fog.3 mph93%30.24 "Hg0 mi
9:00 pm21 °FIce fog.3 mph93%30.24 "Hg0 mi
8:30 pm21 °FIce fog.5 mph93%30.24 "Hg0 mi
8:00 pm21 °FIce fog.6 mph100%30.24 "Hg0 mi
7:30 pm21 °FIce fog.7 mph93%30.24 "Hg0 mi
7:00 pm19 °FIce fog.7 mph100%30.24 "Hg3 mi
6:30 pm21 °FClear.6 mph86%30.24 "Hg4 mi
6:00 pm23 °FClear.3 mph80%30.21 "Hg5 mi
5:30 pm27 °FClear.3 mph74%30.21 "Hg5 mi
5:00 pm27 °FClear.3 mph74%30.21 "Hg6 mi
4:30 pm28 °FClear.6 mph74%30.21 "Hg6 mi
4:00 pm30 °FClear.6 mph69%30.21 "Hg6 mi
3:30 pm32 °FClear.6 mph64%30.21 "Hg6 mi
3:00 pm32 °FClear.5 mph64%30.21 "Hg6 mi
2:30 pm32 °FClear.5 mph64%30.21 "Hg6 mi
2:00 pm30 °FClear.6 mph69%30.21 "Hg6 mi
1:30 pm30 °FPassing clouds.6 mph69%30.21 "HgN/A
1:00 pm28 °FClear.6 mph74%30.24 "Hg6 mi
12:30 pm28 °FClear.3 mph74%30.24 "Hg5 mi
12:00 pm28 °FPassing clouds.3 mph74%30.27 "Hg5 mi
11:30 am27 °FPassing clouds.5 mph80%30.27 "Hg5 mi
11:00 am27 °FPassing clouds.7 mph80%30.27 "Hg4 mi
10:30 am25 °FPassing clouds.9 mph86%30.27 "Hg4 mi
10:00 am25 °FIce fog.7 mph86%30.27 "Hg3 mi
9:30 am21 °FIce fog.2 mph93%30.27 "Hg3 mi
9:00 am18 °FIce fog.2 mph86%30.27 "Hg3 mi
8:30 am19 °FIce fog.3 mph93%30.27 "Hg3 mi
8:00 am19 °FIce fog.6 mph86%30.27 "Hg3 mi
7:30 am19 °FIce fog.6 mph93%30.27 "Hg3 mi
7:00 am14 °FIce fog.5 mph92%30.27 "Hg3 mi
6:30 am12 °FIce fog.No wind92%30.27 "Hg3 mi
6:00 am14 °FIce fog.No wind92%30.27 "Hg3 mi
5:30 am12 °FIce fog.2 mph92%30.27 "Hg2 mi
5:00 am14 °FIce fog.No wind85%30.30 "Hg2 mi
4:30 am14 °FIce fog.No wind92%30.30 "Hg2 mi
4:00 am14 °FIce fog.1 mph85%30.30 "Hg3 mi
3:30 am16 °FIce fog.No wind93%30.30 "Hg3 mi
3:00 am16 °FIce fog.2 mph93%30.30 "Hg3 mi
2:30 am18 °FIce fog.1 mph93%30.30 "Hg3 mi
2:00 am18 °FIce fog.1 mph86%30.33 "Hg3 mi
1:30 am18 °FIce fog.6 mph93%30.33 "Hg3 mi
1:00 am18 °FIce fog.2 mph93%30.33 "Hg3 mi
12:30 am19 °FIce fog.2 mph93%30.33 "Hg3 mi
12:00 am18 °FIce fog.2 mph93%30.33 "Hg3 mi
11:30 pm
Sat, Jan 21
19 °FIce fog.2 mph93%30.33 "Hg3 mi
11:00 pm19 °FIce fog.2 mph93%30.33 "Hg3 mi
Weather by CustomWeather, © 2017

See weather overviewHow to use our weather pages